CSN6775 ZGSZ-ZUGY

Flight info

Callsign CSN6775
Flight time N/A
Altitude 27600
Route MIPAG1 MIPAG W21 TEPID W24 OSNOV G586 QP B330 ELKAL ELKAL6W
Aircraft A21N/M-SDE3FGHIRWY/LB1

Departure

Time 2026-05-04 07:35
Airport Shenzhen Bao'an International Airport (ZGSZ)

Arrival

Time N/A
Airport Guiyang Longdongbao International Airport (ZUGY)
Time Latitude Longitude Altitude Speed Heading
2026-05-04 07:29 22.64019 113.80688 22 ft 18 kts 151°
2026-05-04 07:29 22.63914 113.80746 22 ft 20 kts 153°
2026-05-04 07:29 22.63796 113.80812 22 ft 22 kts 153°
2026-05-04 07:30 22.63663 113.80884 22 ft 24 kts 153°
2026-05-04 07:30 22.63524 113.80961 22 ft 26 kts 153°
2026-05-04 07:30 22.63371 113.81045 22 ft 27 kts 153°
2026-05-04 07:30 22.63213 113.81131 22 ft 29 kts 153°
2026-05-04 07:31 22.63057 113.81216 22 ft 27 kts 153°
2026-05-04 07:31 22.62900 113.81303 22 ft 26 kts 153°
2026-05-04 07:33 22.62538 113.81744 22 ft 13 kts 58°
2026-05-04 07:33 22.62568 113.81786 22 ft 8 kts 37°
2026-05-04 07:33 22.62575 113.81791 22 ft 5 kts 26°
2026-05-04 07:33 22.62609 113.81786 22 ft 6 kts 335°
2026-05-04 07:34 22.62671 113.81754 22 ft 31 kts 334°
2026-05-04 07:34 22.63060 113.81539 22 ft 105 kts 332°
2026-05-04 07:34 22.63815 113.81126 23 ft 165 kts 334°
2026-05-04 07:34 22.64765 113.80620 531 ft 173 kts 335°
2026-05-04 07:35 22.65696 113.80103 1246 ft 174 kts 336°
2026-05-04 07:35 22.66651 113.79572 1931 ft 177 kts 336°
2026-05-04 07:35 22.67660 113.79019 2442 ft 193 kts 336°
2026-05-04 07:35 22.68760 113.78423 2974 ft 205 kts 336°
2026-05-04 07:36 22.69927 113.77794 3465 ft 218 kts 335°
2026-05-04 07:36 22.71192 113.77106 3910 ft 237 kts 334°
2026-05-04 07:38 22.82650 113.74885 8973 ft 290 kts 352°
2026-05-04 07:38 22.84409 113.74754 9704 ft 293 kts 351°
2026-05-04 07:38 22.86222 113.74618 10429 ft 297 kts 351°
2026-05-04 07:38 22.88017 113.74480 11160 ft 299 kts 350°
2026-05-04 07:39 22.89874 113.74335 11770 ft 306 kts 351°
2026-05-04 07:39 22.91788 113.74192 12218 ft 319 kts 352°
2026-05-04 07:39 22.93790 113.74143 12663 ft 333 kts 354°
2026-05-04 07:39 22.95851 113.74139 13033 ft 347 kts 355°
2026-05-04 07:40 22.98032 113.74144 13482 ft 358 kts 355°
2026-05-04 07:40 23.00260 113.74155 13971 ft 366 kts 355°
2026-05-04 07:40 23.02505 113.74166 14539 ft 371 kts 355°
2026-05-04 07:40 23.04843 113.74179 15145 ft 375 kts 355°
2026-05-04 07:41 23.07164 113.74191 15704 ft 379 kts 354°
2026-05-04 07:41 23.09524 113.74199 16246 ft 383 kts 354°
2026-05-04 07:41 23.11933 113.74206 16777 ft 387 kts 354°
2026-05-04 07:41 23.14302 113.74215 17284 ft 391 kts 354°
2026-05-04 07:42 23.16692 113.74223 17786 ft 395 kts 354°
2026-05-04 07:42 23.19102 113.74232 18283 ft 398 kts 354°
2026-05-04 07:42 23.21548 113.74240 18811 ft 400 kts 354°
2026-05-04 07:42 23.24019 113.74248 19308 ft 403 kts 354°
2026-05-04 07:43 23.26493 113.74198 19790 ft 402 kts 348°
2026-05-04 07:43 23.28801 113.73576 20185 ft 392 kts 331°
2026-05-04 07:43 23.30837 113.72244 20676 ft 382 kts 315°
2026-05-04 07:43 23.32410 113.70412 21203 ft 374 kts 302°
2026-05-04 07:44 23.33729 113.68406 21683 ft 375 kts 301°
2026-05-04 07:44 23.35065 113.66357 22124 ft 378 kts 301°
2026-05-04 07:44 23.36391 113.64335 22478 ft 383 kts 301°
2026-05-04 07:44 23.37766 113.62242 22635 ft 393 kts 301°
2026-05-04 07:45 23.39190 113.60085 22883 ft 400 kts 302°
2026-05-04 07:45 23.40593 113.57964 23217 ft 404 kts 302°
2026-05-04 07:45 23.42031 113.55796 23624 ft 405 kts 301°
2026-05-04 07:45 23.43497 113.53590 24007 ft 408 kts 301°
2026-05-04 07:46 23.44958 113.51385 24361 ft 411 kts 301°
2026-05-04 07:46 23.46405 113.49204 24685 ft 414 kts 301°
2026-05-04 07:46 23.47885 113.46972 25018 ft 417 kts 301°
2026-05-04 07:46 23.49401 113.44682 25345 ft 420 kts 301°
2026-05-04 07:47 23.50906 113.42415 25668 ft 423 kts 301°
2026-05-04 07:47 23.52477 113.40194 25988 ft 427 kts 303°
2026-05-04 07:47 23.54168 113.38004 26317 ft 431 kts 306°
2026-05-04 07:49 23.67003 113.22926 27614 ft 447 kts 297°
2026-05-04 07:49 23.68376 113.20332 27616 ft 445 kts 292°
2026-05-04 07:49 23.69530 113.17693 27623 ft 444 kts 290°
2026-05-04 07:50 23.70648 113.15004 27626 ft 443 kts 289°
2026-05-04 07:50 23.71724 113.12377 27626 ft 442 kts 289°
2026-05-04 07:50 23.72818 113.09704 27627 ft 442 kts 289°
2026-05-04 07:50 23.73918 113.07027 27630 ft 443 kts 289°
2026-05-04 07:51 23.74906 113.04628 27631 ft 443 kts 289°
2026-05-04 07:51 23.75999 113.01960 27632 ft 442 kts 289°
2026-05-04 07:51 23.76998 112.99300 27635 ft 440 kts 287°
2026-05-04 07:51 23.77904 112.96577 27638 ft 439 kts 284°
2026-05-04 07:52 23.78709 112.93803 27640 ft 438 kts 282°
2026-05-04 07:52 23.79435 112.91046 27642 ft 438 kts 282°
2026-05-04 07:52 23.80153 112.88277 27645 ft 437 kts 282°
2026-05-04 07:52 23.80870 112.85503 27649 ft 437 kts 282°
2026-05-04 07:53 23.81586 112.82737 27650 ft 438 kts 282°
2026-05-04 07:54 23.86605 112.63263 27656 ft 437 kts 281°
2026-05-04 07:55 23.87321 112.60480 27653 ft 437 kts 282°
2026-05-04 07:55 23.88031 112.57716 27651 ft 436 kts 282°
2026-05-04 07:55 23.88740 112.54953 27651 ft 436 kts 281°
2026-05-04 07:55 23.89455 112.52168 27648 ft 436 kts 281°
2026-05-04 07:56 23.90167 112.49390 27643 ft 436 kts 282°
2026-05-04 07:56 23.90878 112.46613 27641 ft 436 kts 282°
2026-05-04 07:56 23.91593 112.43818 27640 ft 436 kts 281°
2026-05-04 07:56 23.92301 112.41048 27636 ft 436 kts 282°
2026-05-04 07:57 23.93005 112.38294 27632 ft 435 kts 281°
2026-05-04 07:57 23.93715 112.35512 27631 ft 435 kts 282°
2026-05-04 07:57 23.94424 112.32732 27632 ft 435 kts 281°
2026-05-04 07:57 23.95124 112.29989 27630 ft 435 kts 281°
2026-05-04 07:58 23.95831 112.27209 27627 ft 435 kts 281°
2026-05-04 07:58 23.96540 112.24422 27625 ft 435 kts 281°
2026-05-04 07:58 23.97243 112.21657 27624 ft 435 kts 281°
2026-05-04 07:58 23.97943 112.18898 27622 ft 435 kts 281°
2026-05-04 07:59 23.98650 112.16115 27622 ft 435 kts 281°
2026-05-04 07:59 23.99363 112.13305 27620 ft 435 kts 281°
2026-05-04 07:59 24.00059 112.10558 27618 ft 435 kts 281°
2026-05-04 07:59 24.00766 112.07761 27617 ft 435 kts 281°
2026-05-04 08:00 24.01458 112.05029 27619 ft 434 kts 281°
2026-05-04 08:00 24.02167 112.02226 27619 ft 434 kts 281°
2026-05-04 08:00 24.02633 112.00381 27620 ft 434 kts 281°
2026-05-04 08:02 24.07733 111.80128 27632 ft 433 kts 281°
2026-05-04 08:02 24.08420 111.77387 27633 ft 433 kts 281°
2026-05-04 08:02 24.09119 111.74602 27629 ft 433 kts 281°
2026-05-04 08:03 24.09805 111.71860 27628 ft 433 kts 281°
2026-05-04 08:03 24.10496 111.69104 27624 ft 433 kts 281°
2026-05-04 08:03 24.11193 111.66313 27624 ft 433 kts 281°
2026-05-04 08:03 24.11648 111.64499 27624 ft 433 kts 281°
2026-05-04 08:04 24.12570 111.60805 27624 ft 432 kts 281°
2026-05-04 08:04 24.13260 111.58039 27626 ft 433 kts 281°
2026-05-04 08:04 24.13949 111.55275 27626 ft 433 kts 281°
2026-05-04 08:04 24.14637 111.52514 27631 ft 433 kts 281°
2026-05-04 08:05 24.15326 111.49745 27636 ft 432 kts 281°
2026-05-04 08:05 24.15780 111.47925 27639 ft 433 kts 281°
2026-05-04 08:05 24.16702 111.44219 27643 ft 433 kts 281°
2026-05-04 08:05 24.17383 111.41476 27644 ft 432 kts 281°
2026-05-04 08:06 24.18069 111.38711 27643 ft 432 kts 281°
2026-05-04 08:06 24.18758 111.35935 27642 ft 432 kts 281°
2026-05-04 08:06 24.19433 111.33209 27642 ft 432 kts 281°
2026-05-04 08:06 24.20236 111.30476 27636 ft 436 kts 287°
2026-05-04 08:08 24.32568 111.14616 27634 ft 453 kts 309°
2026-05-04 08:08 24.34546 111.12511 27631 ft 453 kts 309°
2026-05-04 08:10 24.50288 110.95651 27631 ft 452 kts 309°
2026-05-04 08:11 24.52263 110.93529 27635 ft 452 kts 309°
2026-05-04 08:11 24.56147 110.89355 27646 ft 452 kts 309°
2026-05-04 08:11 24.58099 110.87252 27647 ft 450 kts 309°
2026-05-04 08:12 24.60030 110.85175 27644 ft 451 kts 309°
2026-05-04 08:12 24.61968 110.83086 27645 ft 451 kts 309°
2026-05-04 08:12 24.63899 110.81006 27645 ft 451 kts 309°
2026-05-04 08:12 24.65832 110.78921 27643 ft 450 kts 309°
2026-05-04 08:13 24.67788 110.76820 27645 ft 450 kts 309°
2026-05-04 08:13 24.69736 110.74760 27638 ft 450 kts 309°
2026-05-04 08:13 24.71715 110.72684 27633 ft 450 kts 310°
2026-05-04 08:13 24.73670 110.70635 27628 ft 450 kts 310°
2026-05-04 08:14 24.75632 110.68576 27629 ft 449 kts 310°
2026-05-04 08:14 24.77594 110.66515 27627 ft 448 kts 310°
2026-05-04 08:14 24.79569 110.64439 27626 ft 447 kts 310°
2026-05-04 08:16 24.93204 110.50053 27634 ft 446 kts 310°
2026-05-04 08:16 24.95142 110.48005 27639 ft 446 kts 310°
2026-05-04 08:16 24.96458 110.46613 27645 ft 445 kts 310°
2026-05-04 08:17 24.99031 110.43892 27640 ft 444 kts 310°
2026-05-04 08:17 25.00963 110.41846 27641 ft 443 kts 310°
2026-05-04 08:17 25.02996 110.39698 27637 ft 443 kts 310°
2026-05-04 08:17 25.04979 110.37605 27636 ft 443 kts 310°
2026-05-04 08:19 25.18895 110.22887 27619 ft 441 kts 309°
2026-05-04 08:19 25.20888 110.20776 27611 ft 441 kts 310°
2026-05-04 08:20 25.22853 110.18712 27613 ft 441 kts 310°
2026-05-04 08:20 25.24843 110.16631 27606 ft 441 kts 310°
2026-05-04 08:20 25.26857 110.14523 27609 ft 441 kts 310°
2026-05-04 08:20 25.28941 110.12343 27608 ft 442 kts 310°
2026-05-04 08:21 25.30972 110.10216 27610 ft 441 kts 310°
2026-05-04 08:21 25.32326 110.08799 27615 ft 440 kts 310°
2026-05-04 08:21 25.35031 110.05964 27618 ft 441 kts 310°
2026-05-04 08:21 25.37084 110.03811 27624 ft 441 kts 310°
2026-05-04 08:22 25.39166 110.01625 27628 ft 440 kts 310°
2026-05-04 08:22 25.41175 109.99514 27625 ft 440 kts 310°
2026-05-04 08:24 25.54087 109.85924 27653 ft 436 kts 310°